Dar Es Salaam, Tanzania

12:10 PM EAT on May 27, 2018 (GMT +0300)
Dar es Salaam International Airport

Weather History for HTDA - March, 2014

Change the Weather History Date:

Wednesday, March 12, 2014

  Actual Average Record
Temperature  
Mean Temperature 81 °F -  
Max Temperature 91 °F 83 °F 94 °F (2015)
Min Temperature 71 °F 75 °F 71 °F (1999)
Cooling Degree Days 16    
Growing Degree Days 31 (Base 50)    
Moisture  
Dew Point 75 °F    
Average Humidity 83    
Maximum Humidity 100    
Minimum Humidity 55    
Precipitation  
Precipitation 0.00 in 0.24 in - ()
Sea Level Pressure  
Sea Level Pressure 29.86 in    
Wind  
Wind Speed 3 mph ()    
Max Wind Speed 12 mph    
Max Gust Speed -    
Visibility 9.6 miles    
Events Rain    
Averages and records for this station are not official NWS values.
T = Trace of Precipitation, MM = Missing Value Source: Averaged Metar Reports

Daily Weather History Graph

Daily Weather History Graph

Search for Another Location

Airport or City:

Astronomy

Mar. 12, 2014 Rise Set
Actual Time 6:28 AM EAT 6:37 PM EAT
Civil Twilight 6:07 AM EAT 6:58 PM EAT
Nautical Twilight 5:42 AM EAT 7:22 PM EAT
Astronomical Twilight 5:18 AM EAT 7:47 PM EAT
Moon 3:34 PM EAT (3/12) 2:56 AM EAT (3/12)
Length of Visible Light 12h 51m
Length of Day
12h 09m
Waxing Gibbous, 83% of the Moon is Illuminated
Mar 12
Waxing Gibbous
Mar 16
Full
Mar 24
Last Quarter
Mar 30
New
Apr 7
First Quarter

Hourly Weather History & Observations

Time (EAT) Temp. Heat Index Dew Point Humidity Pressure Visibility Wind Dir Wind Speed Gust Speed Precip Events Conditions
12:00 AM 73 °F - 73 °F 99% 29.89 in 19 mi West 4.6 mph - -   Partly Cloudy
12:00 AM 73.4 °F - 73.4 °F 100% 29.89 in 6.2 mi West 4.6 mph - N/A   Scattered Clouds
1:00 AM 73.4 °F - 73.4 °F 100% 29.86 in 6.2 mi West 3.5 mph - N/A   Scattered Clouds
2:00 AM 73.4 °F - 73.4 °F 100% 29.83 in 6.2 mi Calm Calm - N/A   Scattered Clouds
3:00 AM 73 °F - 72 °F 97% 29.83 in 19 mi Calm Calm - -   Partly Cloudy
3:00 AM 73.4 °F - 71.6 °F 94% 29.83 in 6.2 mi Calm Calm - N/A   Scattered Clouds
4:00 AM 73.4 °F - 71.6 °F 94% 29.83 in 6.2 mi Calm Calm - N/A   Scattered Clouds
5:00 AM 73.4 °F - 71.6 °F 94% 29.86 in 6.2 mi Calm Calm - N/A   Scattered Clouds
6:00 AM 72 °F - 72 °F 99% 29.88 in 19 mi Calm Calm - -   Partly Cloudy
6:00 AM 71.6 °F - 71.6 °F 100% 29.86 in 6.2 mi Calm Calm - N/A   Mostly Cloudy
7:00 AM 73.4 °F - 73.4 °F 100% 29.89 in 6.2 mi SW 4.6 mph - N/A   Mostly Cloudy
8:00 AM 75.2 °F - 73.4 °F 94% 29.89 in 6.2 mi SSW 5.8 mph - N/A   Mostly Cloudy
9:00 AM 81 °F - 73 °F 71% 29.94 in 19 mi WSW 9.2 mph - -   Partly Cloudy
9:00 AM 80.6 °F 85.4 °F 73.4 °F 79% 29.92 in 6.2 mi WSW 9.2 mph - N/A   Scattered Clouds
10:00 AM 84.2 °F 89.6 °F 71.6 °F 66% 29.92 in 6.2 mi SSW 11.5 mph - N/A   Scattered Clouds
11:00 AM 86.0 °F 95.1 °F 75.2 °F 70% 29.92 in 6.2 mi South 3.5 mph - N/A   Mostly Cloudy
12:00 PM 89 °F - 76 °F 57% 29.90 in 19 mi South 5.8 mph - -   Mostly Cloudy
12:00 PM 89.6 °F 99.8 °F 75.2 °F 62% 29.89 in 6.2 mi South 5.8 mph - N/A   Scattered Clouds
1:00 PM 89.6 °F 99.8 °F 75.2 °F 62% 29.86 in 6.2 mi SSE 5.8 mph - N/A Rain Light Rain Showers
2:00 PM 89.6 °F 102.2 °F 77.0 °F 66% 29.83 in 6.2 mi SE 2.3 mph - N/A   Mostly Cloudy
3:00 PM 90 °F - 76 °F 55% 29.81 in 19 mi East 2.3 mph - -   Mostly Cloudy
3:00 PM 89.6 °F 99.8 °F 75.2 °F 62% 29.80 in 6.2 mi East 2.3 mph - N/A   Mostly Cloudy
5:00 PM 89.6 °F 104.7 °F 78.8 °F 70% 29.77 in 6.2 mi SE 9.2 mph - N/A   Scattered Clouds
6:00 PM 87 °F - 76 °F 62% 29.80 in 19 mi SE 9.2 mph - -   Partly Cloudy
6:00 PM 86.0 °F 95.1 °F 75.2 °F 70% 29.77 in 6.2 mi SE 9.2 mph - N/A   Scattered Clouds
7:00 PM 82.4 °F 90.9 °F 77.0 °F 84% 29.83 in 6.2 mi SE 6.9 mph - N/A   Scattered Clouds
9:00 PM 81 °F - 78 °F 88% 29.87 in 19 mi South 3.5 mph - -   Scattered Clouds
9:00 PM 80.6 °F 88.1 °F 78.8 °F 94% 29.86 in 6.2 mi South 3.5 mph - N/A   Scattered Clouds
10:00 PM 80.6 °F 88.1 °F 78.8 °F 94% 29.86 in 6.2 mi South 3.5 mph - N/A   Partly Cloudy
11:00 PM 78.8 °F - 77.0 °F 94% 29.89 in 6.2 mi SSW 4.6 mph - N/A   Partly Cloudy